Retour au catalogue

STARLINK-32174

ActifCommunicationsVLEO
NORAD 61509·PAYLOAD·🇺🇸 United States

Lancé Oct 15, 2024 depuis Cape Canaveral Space Force Station

Loading…

Prochains Passages (prochaines 24 heures)

TLE

FraisSource: CelesTrak SupGP

Époque: Sep 14, 2026, 14:44 UTC

1 61509C 24183A   26257.61437500 -.00000774  00000+0 -22889-4 0  2576
2 61509  53.1589 328.9233 0001203  82.5751 250.4219 15.34372732    19

Suivez STARLINK-32174 en temps réel avec AllMySat

Download on the App Store